Content
SEND FEEDBACK

Daily
Averages
Monthly
Summary
United States of America

BARRINGTON, ILLINOIS


Home > North America > United States > Illinois
Elevation: 810 feet     Latitude: 42 10N     Longitude: 088 09W

WEATHER
 
SELECT A DAY
Number of Records: 198,949;   Date Range: 1/1/95 - 9/29/14
 
SHARE

PRINT THIS DATA

[ ← Previous Day ]
WEATHER ALMANAC - JANUARY 16, 2013
[ Next Day → ]
[ °C ]   °F
Weather ElementAverageHighLow
Temperature29.2 °F35.1 °F (12:51 pm)16 °F (4:51 am)
Dewpoint20.7 °F26.6 °F (10:06 pm)12.9 °F (4:51 am)
Humidity71.7 %88 % (4:51 am)54 % (12:51 pm)
Barometer29.96 in30.07 in (1:51 am)29.84 in (1:51 pm)
Wind Speed14.3 mph26.5 mph (12:51 pm)
Wind Gust28.8 mph (2:51 pm)
Weather ElementAverage
Visibility9.8 mi
Wind DirectionWSW (230.8 °)

Weather ElementTotal
Precipitation---
Heating Degree Days39.5 (Base 65)
Averaged from 26 records on January 16, 2013
WEATHER CONDITIONS BREAKOUT
WIND DIRECTION BREAKOUT
WEATHER BY HOUR - JANUARY 16, 2013
[ °C ]   °F
Local TimeTemperatureDewpointHumidityBarometerVisibilityWind DirectionWind SpeedGust SpeedPrecipitationEventsConditions
1:51 AM19.4 °F15.8 °F86 %30.07 in10.0 miCalmClear
3:51 AM19.0 °F15.1 °F85 %30.06 in9.0 miSSW (200°)6.9 mphClear
4:51 AM16.0 °F12.9 °F88 %30.03 in9.0 miSSW (210°)4.6 mphClear
5:51 AM19.0 °F14.0 °F81 %30.00 in10.0 miSW (220°)4.6 mphClear
6:51 AM19.9 °F15.1 °F81 %30.00 in10.0 miWSW (240°)8.1 mphClear
7:51 AM21.0 °F14.0 °F74 %29.99 in9.0 miSW (230°)10.4 mphPartly Cloudy
8:51 AM23.0 °F12.9 °F65 %29.98 in9.0 miSW (220°)13.8 mphPartly Cloudy
9:51 AM27.0 °F12.9 °F56 %29.95 in10.0 miSW (220°)15.0 mph20.7 mphPartly Cloudy
10:51 AM30.0 °F16.0 °F56 %29.92 in10.0 miSW (230°)15.0 mph21.9 mphPartly Cloudy
11:51 AM32.0 °F19.0 °F59 %29.88 in10.0 miSW (220°)17.3 mph26.5 mphPartly Cloudy
12:51 PM35.1 °F19.9 °F54 %29.85 in10.0 miSW (230°)26.5 mphPartly Cloudy
1:51 PM35.1 °F21.0 °F57 %29.84 in10.0 miWSW (240°)23.0 mphMostly Cloudy
2:51 PM35.1 °F21.9 °F59 %29.86 in10.0 miSW (230°)23.0 mph28.8 mphOvercast
3:51 PM35.1 °F23.0 °F61 %29.88 in10.0 miWSW (240°)23.0 mphOvercast
4:51 PM34.0 °F24.1 °F67 %29.93 in10.0 miWSW (250°)26.5 mphOvercast
5:11 PM33.8 °F24.8 °F70 %29.91 in10.0 miWest (260°)24.2 mphOvercast
5:31 PM33.8 °F24.8 °F70 %29.92 in10.0 miWest (260°)24.2 mphOvercast
5:51 PM34.0 °F24.1 °F67 %29.95 in10.0 miWest (260°)24.2 mphOvercast
6:51 PM34.0 °F25.0 °F70 %29.96 in10.0 miWSW (250°)19.6 mphOvercast
7:51 PM34.0 °F25.0 °F70 %29.99 in10.0 miWest (260°)13.8 mphOvercast
8:51 PM33.1 °F26.1 °F75 %30.01 in10.0 miWest (260°)11.5 mphOvercast
9:51 PM32.0 °F26.1 °F79 %30.02 in10.0 miWest (270°)11.5 mphScattered Clouds
10:06 PM32.0 °F26.6 °F80 %29.99 in10.0 miWSW (250°)8.1 mphMostly Cloudy
10:25 PM30.2 °F26.6 °F86 %29.99 in10.0 miWSW (240°)5.8 mphScattered Clouds
10:51 PM30.9 °F26.1 °F82 %30.02 in10.0 miWSW (250°)4.6 mphScattered Clouds
11:51 PM30.0 °F26.1 °F85 %30.04 in10.0 miWest (260°)5.8 mphScattered Clouds
Hourly data recorded from KORD, located miles away from Barrington, Illinois







STORIES FROM OUR PARTNERS